Tracking 33407 objects as of 5-Mar-2026
HD Live streaming from Space Station
objects crossing your sky now

STARLINK-5300

Track STARLINK-5300 now!
10-day predictions
STARLINK-5300 is classified as:


NORAD ID: 55676
Int'l Code: 2023-021BA
Perigee: 577.2 km
Apogee: 581.2 km
Inclination: 70.0 °
Period: 96.1 minutes
Semi major axis: 6950 km
RCS: Unknown
Launch date: February 17, 2023
Source: United States (US)
Launch site: AIR FORCE WESTERN TEST RANGE (AFWTR)
Your satellite tracking list
Your tracking list is empty




NASA's NSSDC Master Catalog

Two Line Element Set (TLE):
1 55676U 23021BA  26064.26241707  .00004167  00000-0  35673-3 0  9999
2 55676  70.0032 155.6592 0002886 257.9633 102.1203 14.98336606169118
Source of the keplerian elements: AFSPC